#timestamp,LO_Frequency,Hit,StdDev 
1513994415.4,286046998.6,N
1513994435.3,286046999.4,N
1513994455.1,286046999.3,N
1513994475.9,286046994.9,N
1513994495.7,286046997.8,N
1513994515.5,286046994.9,N
1513994535.4,286046998.9,N
1513994555.2,286046998.9,N
1513994575.1,286047000.0,N
1513994576.0,286047000.0,N
1513994595.8,286047000.6,N
1513994615.6,286046999.9,N
1513994635.5,286047002.5,N
1513994655.3,286046998.3,N
1513994675.1,286046999.3,N
1513994695.9,286046998.1,N
1513994715.7,286046998.2,N
1513994735.6,286046999.1,N
1513994755.4,286046999.4,N
1513994775.2,286047001.2,N
1513994795.1,286047000.6,N
1513994796.0,286047000.6,N
1513994815.8,286047001.1,N
1513994835.7,286047001.0,N
1513994855.5,286046999.8,N
1513994875.3,286047002.3,N
1513994895.2,286047000.0,N
1513994915.0,286047000.8,N
1513994915.9,286047000.8,N
1513994935.8,286047001.1,N
1513994955.6,286046998.2,N
1513994975.4,286046999.1,N
1513994995.3,286047000.6,N
1513995015.1,286047001.1,N
1513995035.8,286046998.2,N
1513995055.7,286046998.6,N
1513995075.5,286046998.4,N
1513995095.4,286046997.6,N
1513995115.2,286046994.4,Y
1513995135.0,286046992.2,P
1513995135.9,286046992.2,N
1513995155.8,286046993.1,N
1513995175.6,286046991.6,N
1513995195.5,286046993.0,N
1513995215.3,286046991.4,Y
1513995235.1,286046997.3,P
1513995255.9,286047001.2,N
1513995275.7,286046999.9,N
1513995295.6,286047003.6,N
1513995315.4,286047002.9,N
1513995335.2,286047004.0,N
1513995355.1,286047003.1,N
1513995356.0,286047003.1,N
1513995375.8,286047003.0,N
1513995395.7,286047001.6,N
1513995415.5,286047002.1,N
1513995435.3,286047000.2,N
1513995455.2,286047000.5,N
1513995475.0,286046998.5,N
1513995475.9,286046998.5,N
1513995495.7,286046999.1,N
1513995515.6,286046999.7,N
1513995535.4,286047004.0,N
1513995555.3,286047003.7,N
1513995575.1,286047004.4,N
1513995576.0,286047004.4,N
1513995595.8,286047004.1,N
1513995615.7,286047003.9,N
1513995635.5,286047003.0,N
1513995655.3,286047004.8,N
1513995675.2,286047003.4,N
1513995695.0,286047004.5,N
1513995695.9,286047004.5,N
1513995715.8,286047005.4,N
1513995735.6,286047003.5,N
1513995755.4,286047003.9,N
1513995775.3,286047005.9,N
1513995795.1,286047004.2,N
1513995815.9,286047000.3,N
1513995835.7,286046999.5,N
1513995855.5,286046996.7,N
1513995875.4,286046999.0,N
1513995895.2,286047000.0,N
1513995915.0,286047001.5,N
1513995916.0,286047001.5,N
1513995935.8,286047004.1,N
1513995955.6,286047003.9,N
1513995975.5,286047002.0,N
1513995995.3,286047003.2,N
1513996015.1,286047005.5,N
1513996035.9,286047003.2,N
1513996055.7,286047002.9,N
1513996075.6,286047003.5,N
1513996095.4,286047003.3,N
1513996115.2,286047004.9,N
1513996135.1,286047005.7,N
1513996136.0,286047005.7,N
1513996155.8,286047005.2,N
1513996175.7,286047005.8,N
1513996195.5,286047004.8,N
1513996215.3,286047007.1,Y
1513996235.2,286047003.9,P
1513996255.0,286047003.7,P
1513996255.9,286047003.7,P
1513996275.8,286047001.4,Y
1513996295.6,286047000.6,P
1513996315.4,286046999.1,N
1513996335.3,286047000.4,N
1513996355.1,286047002.4,N
1513996375.8,286047000.2,N
1513996395.7,286047000.6,N
1513996415.5,286047001.0,N
1513996435.4,286047000.7,N
1513996455.2,286047000.7,N
1513996475.0,286047002.8,N
1513996475.9,286047002.8,N
1513996495.8,286047000.2,N
1513996515.6,286047002.4,N
1513996535.5,286047001.9,N
1513996555.3,286047001.5,N
1513996575.1,286046998.2,N
1513996595.9,286046998.2,N
1513996615.7,286046998.8,N
1513996635.6,286046998.7,N
1513996655.4,286047001.2,N
1513996675.2,286046998.7,N
1513996695.1,286046998.8,N
1513996696.0,286046998.8,N
1513996715.8,286047001.2,N
1513996735.6,286046999.2,N
1513996755.5,286046997.9,N
1513996775.3,286046997.5,N
1513996795.2,286046998.4,N
1513996815.9,286046998.6,N
1513996835.7,286046999.5,N
1513996855.6,286046999.0,N
1513996875.4,286046997.5,N
1513996895.3,286046998.7,N
1513996915.1,286046999.4,N
1513996916.0,286046999.4,N
1513996935.8,286046997.3,N
1513996955.7,286046995.1,Y
1513996975.5,286046995.3,P
1513996995.4,286046995.7,N
1513997015.2,286046997.4,N
1513997035.0,286047001.2,N
1513997035.9,286047001.2,N
1513997055.8,286046997.0,N
1513997075.6,286046997.5,N
1513997095.4,286046995.0,N
1513997115.3,286046995.9,N
1513997135.1,286046994.2,N
1513997155.9,286046996.1,N
1513997175.7,286046996.2,N
1513997195.5,286046996.0,N
1513997215.4,286046995.4,N
1513997235.2,286046993.5,Y
1513997255.1,286047000.7,P
1513997256.0,286047000.7,N
1513997275.8,286047002.0,N
1513997295.6,286047004.1,N
1513997315.5,286047004.1,N
1513997335.3,286047002.9,N
1513997355.2,286047007.1,Y
1513997375.9,286047002.2,P
1513997395.7,286047002.8,P
1513997415.6,286047000.0,N
1513997435.4,286046999.7,N
1513997455.3,286047002.8,N
1513997475.1,286047002.8,N
1513997476.0,286047002.8,N
1513997495.8,286047000.0,N
1513997515.7,286046999.6,N
1513997535.5,286046999.5,N
1513997555.3,286046996.9,N
1513997575.2,286046996.5,N
1513997595.0,286046998.3,N
1513997595.9,286046998.3,N
1513997615.8,286046997.3,N
1513997635.6,286046995.1,N
1513997655.4,286046999.4,N
1513997675.3,286046999.2,N
1513997695.1,286047000.9,N
1513997715.9,286047000.5,N
1513997735.7,286046999.4,N
1513997785.6,286047001.1,E
1513997795.5,286046998.4,N
1513997815.3,286046998.8,P
1513997835.2,286046997.4,P
1513997855.9,286046995.8,Y
1513997875.7,286046996.5,P
1513997895.6,286047000.3,N
1513997915.4,286046999.9,N
1513997935.3,286047000.8,N
1513997955.1,286047000.4,N
1513997956.0,286047000.4,N
1513997975.8,286047002.6,N
1513997995.7,286047001.7,N
